When you browse on this site, cookies collect data to enhance your experience and personalize the content and advertising you see.
Visit our Privacy Policy to learn more. By continuing to use the site, you agree to this use of cookies and data.
  • In United Kingdom
  • List of Countries
  • For 7 days
  • Water Temperature
  • Satellite Maps
  • Weather Map
  • Weather Widgets
  • user-avatar
    Login

    Hourly Weather Debrecen

    Today, 20 June, Thursday

    Time Temperature Precipitation Wind Pressure Humidity
    00:00 +22°C° 0.3 mm 1 mps 749 mmHg 80%
    01:00 +22°C° 0.3 mm 1 mps 748 mmHg 82%
    02:00 +21°C° 0.3 mm 1 mps 748 mmHg 84%
    03:00 +21°C° 0.3 mm 1 mps 748 mmHg 86%
    04:00 +21°C° 0.3 mm 1 mps 748 mmHg 88%
    05:00 +22°C° 0 mm 1 mps 749 mmHg 84%
    06:00 +23°C° 0 mm 1 mps 749 mmHg 80%
    07:00 +25°C° 0 mm 2 mps 749 mmHg 76%
    08:00 +26°C° 0 mm 2 mps 749 mmHg 71%
    09:00 +27°C° 0 mm 2 mps 749 mmHg 65%
    10:00 +28°C° 0 mm 3 mps 749 mmHg 60%
    11:00 +29°C° 0 mm 3 mps 749 mmHg 57%
    12:00 +29°C° 0 mm 3 mps 749 mmHg 55%
    13:00 +30°C° 0 mm 3 mps 749 mmHg 53%
    14:00 +30°C° 0 mm 3 mps 748 mmHg 54%
    15:00 +30°C° 0 mm 3 mps 748 mmHg 55%
    16:00 +30°C° 0 mm 3 mps 748 mmHg 56%
    17:00 +29°C° 0.1 mm 2 mps 748 mmHg 61%
    18:00 +27°C° 0.1 mm 2 mps 748 mmHg 67%
    19:00 +26°C° 0.1 mm 1 mps 748 mmHg 73%
    20:00 +25°C° 0 mm 1 mps 748 mmHg 74%
    21:00 +24°C° 0 mm 1 mps 748 mmHg 75%
    22:00 +23°C° 0 mm 1 mps 749 mmHg 76%
    23:00 +23°C° 0.3 mm 1 mps 749 mmHg 78%

    Tomorrow, 21 June, Friday

    Time Temperature Precipitation Wind Pressure Humidity
    00:00 +22°C° 0.3 mm 1 mps 749 mmHg 80%
    01:00 +22°C° 0.3 mm 1 mps 749 mmHg 82%
    02:00 +21°C° 0.4 mm 1 mps 749 mmHg 83%
    03:00 +21°C° 0.4 mm 1 mps 749 mmHg 85%
    04:00 +21°C° 0.4 mm 1 mps 749 mmHg 86%
    05:00 +22°C° 0.4 mm 1 mps 749 mmHg 84%
    06:00 +23°C° 0.4 mm 2 mps 749 mmHg 81%
    07:00 +24°C° 0.4 mm 2 mps 749 mmHg 79%
    08:00 +25°C° 0 mm 2 mps 750 mmHg 75%
    09:00 +27°C° 0 mm 2 mps 750 mmHg 72%
    10:00 +28°C° 0 mm 2 mps 750 mmHg 68%
    11:00 +29°C° 0.5 mm 2 mps 749 mmHg 64%
    12:00 +29°C° 0.5 mm 2 mps 749 mmHg 59%
    13:00 +30°C° 0.5 mm 2 mps 749 mmHg 54%
    14:00 +30°C° 0 mm 2 mps 749 mmHg 55%
    15:00 +30°C° 0 mm 2 mps 749 mmHg 55%
    16:00 +30°C° 0 mm 2 mps 749 mmHg 56%
    17:00 +29°C° 0 mm 2 mps 749 mmHg 62%
    18:00 +27°C° 0 mm 2 mps 749 mmHg 68%
    19:00 +26°C° 0 mm 2 mps 749 mmHg 74%
    20:00 +25°C° 0.1 mm 1 mps 749 mmHg 77%
    21:00 +24°C° 0.1 mm 1 mps 750 mmHg 79%
    22:00 +23°C° 0.1 mm 1 mps 750 mmHg 82%
    23:00 +23°C° 0 mm 1 mps 750 mmHg 84%

    Day after tomorrow, 22 June, Saturday

    Time Temperature Precipitation Wind Pressure Humidity
    00:00 +22°C° 0 mm 1 mps 750 mmHg 86%
    01:00 +22°C° 0 mm 1 mps 750 mmHg 88%
    02:00 +21°C° 0.1 mm 1 mps 750 mmHg 89%
    03:00 +21°C° 0.1 mm 1 mps 750 mmHg 90%
    04:00 +20°C° 0.1 mm 1 mps 750 mmHg 91%
    05:00 +21°C° 0.2 mm 2 mps 750 mmHg 87%
    06:00 +23°C° 0.2 mm 2 mps 751 mmHg 84%
    07:00 +24°C° 0.2 mm 2 mps 751 mmHg 80%
    08:00 +25°C° 0.1 mm 2 mps 751 mmHg 76%
    09:00 +27°C° 0.1 mm 2 mps 750 mmHg 71%
    10:00 +28°C° 0.1 mm 3 mps 750 mmHg 66%
    11:00 +29°C° 0.1 mm 2 mps 750 mmHg 63%
    12:00 +29°C° 0.1 mm 2 mps 750 mmHg 59%
    13:00 +30°C° 0.1 mm 1 mps 750 mmHg 55%
    14:00 +30°C° 0 mm 1 mps 750 mmHg 55%
    15:00 +30°C° 0 mm 1 mps 750 mmHg 55%
    16:00 +30°C° 0 mm 1 mps 749 mmHg 55%
    17:00 +29°C° 0.2 mm 2 mps 749 mmHg 63%
    18:00 +27°C° 0.2 mm 2 mps 749 mmHg 71%
    19:00 +26°C° 0.2 mm 3 mps 749 mmHg 80%
    20:00 +25°C° 0.2 mm 3 mps 749 mmHg 82%
    21:00 +24°C° 0.2 mm 2 mps 749 mmHg 85%
    22:00 +23°C° 0.2 mm 2 mps 749 mmHg 88%
    23:00 +21°C° 0.5 mm 2 mps 749 mmHg 90%

    23 June, Sunday

    Time Temperature Precipitation Wind Pressure Humidity
    00:00 +20°C° 0.5 mm 2 mps 749 mmHg 92%
    01:00 +20°C° 0.5 mm 3 mps 749 mmHg 95%
    02:00 +20°C° 0.3 mm 3 mps 749 mmHg 95%
    03:00 +19°C° 0.3 mm 3 mps 749 mmHg 96%
    04:00 +19°C° 0.3 mm 3 mps 749 mmHg 96%
    05:00 +20°C° 0 mm 3 mps 749 mmHg 93%
    06:00 +21°C° 0 mm 4 mps 749 mmHg 89%
    07:00 +23°C° 0 mm 4 mps 749 mmHg 85%
    08:00 +25°C° 0.9 mm 4 mps 749 mmHg 81%
    09:00 +26°C° 0.9 mm 4 mps 749 mmHg 77%
    10:00 +28°C° 0.9 mm 4 mps 749 mmHg 73%
    11:00 +28°C° 1.3 mm 4 mps 749 mmHg 71%
    12:00 +29°C° 1.3 mm 4 mps 749 mmHg 68%
    13:00 +29°C° 1.3 mm 4 mps 749 mmHg 66%
    14:00 +28°C° 2.7 mm 4 mps 749 mmHg 70%
    15:00 +27°C° 2.7 mm 5 mps 749 mmHg 74%
    16:00 +26°C° 2.7 mm 5 mps 749 mmHg 78%
    17:00 +25°C° 0.6 mm 5 mps 749 mmHg 80%
    18:00 +25°C° 0.6 mm 5 mps 749 mmHg 83%
    19:00 +23°C° 0.6 mm 5 mps 750 mmHg 85%
    20:00 +22°C° 0.5 mm 5 mps 750 mmHg 87%
    21:00 +21°C° 0.5 mm 5 mps 750 mmHg 89%
    22:00 +20°C° 0.5 mm 5 mps 751 mmHg 91%
    23:00 +20°C° 0.6 mm 5 mps 751 mmHg 91%

    24 June, Monday

    Time Temperature Precipitation Wind Pressure Humidity
    00:00 +19°C° 0.6 mm 5 mps 751 mmHg 92%
    01:00 +19°C° 0.6 mm 5 mps 751 mmHg 93%
    02:00 +19°C° 0.4 mm 5 mps 751 mmHg 93%
    03:00 +19°C° 0.4 mm 4 mps 751 mmHg 93%
    04:00 +19°C° 0.4 mm 4 mps 751 mmHg 93%
    05:00 +20°C° 0 mm 4 mps 751 mmHg 91%
    06:00 +21°C° 0 mm 4 mps 752 mmHg 88%
    07:00 +22°C° 0 mm 5 mps 752 mmHg 86%
    08:00 +25°C° 0 mm 5 mps 752 mmHg 81%
    09:00 +26°C° 0 mm 4 mps 752 mmHg 77%
    10:00 +28°C° 0 mm 4 mps 752 mmHg 72%
    11:00 +28°C° 0.6 mm 4 mps 752 mmHg 70%
    12:00 +29°C° 0.6 mm 4 mps 752 mmHg 68%
    13:00 +30°C° 0.6 mm 4 mps 752 mmHg 65%
    14:00 +29°C° 0.4 mm 4 mps 752 mmHg 67%
    15:00 +29°C° 0.4 mm 4 mps 752 mmHg 68%
    16:00 +29°C° 0.4 mm 4 mps 752 mmHg 69%
    17:00 +28°C° 0.4 mm 4 mps 752 mmHg 75%
    18:00 +26°C° 0.4 mm 4 mps 752 mmHg 81%
    19:00 +25°C° 0.4 mm 4 mps 752 mmHg 86%
    20:00 +23°C° 0 mm 4 mps 752 mmHg 87%
    21:00 +22°C° 0 mm 4 mps 753 mmHg 87%
    22:00 +22°C° 0 mm 4 mps 753 mmHg 88%
    23:00 +21°C° 0 mm 4 mps 753 mmHg 88%

    25 June, Tuesday

    Time Temperature Precipitation Wind Pressure Humidity
    00:00 +21°C° 0 mm 4 mps 753 mmHg 89%
    01:00 +21°C° 0 mm 4 mps 753 mmHg 89%
    02:00 +20°C° 0 mm 4 mps 753 mmHg 90%
    03:00 +20°C° 0 mm 4 mps 753 mmHg 91%
    04:00 +20°C° 0 mm 5 mps 753 mmHg 91%
    05:00 +21°C° 0 mm 5 mps 753 mmHg 88%
    06:00 +22°C° 0 mm 5 mps 753 mmHg 86%
    07:00 +23°C° 0 mm 5 mps 753 mmHg 83%
    08:00 +26°C° 0 mm 5 mps 754 mmHg 79%
    09:00 +27°C° 0 mm 5 mps 754 mmHg 74%
    10:00 +29°C° 0 mm 5 mps 754 mmHg 70%
    11:00 +30°C° 0 mm 5 mps 754 mmHg 66%
    12:00 +30°C° 0 mm 4 mps 754 mmHg 63%
    13:00 +32°C° 0 mm 4 mps 753 mmHg 59%
    14:00 +32°C° 0 mm 4 mps 753 mmHg 59%
    15:00 +33°C° 0 mm 4 mps 753 mmHg 59%
    16:00 +33°C° 0 mm 4 mps 753 mmHg 59%
    17:00 +30°C° 0.1 mm 3 mps 753 mmHg 66%
    18:00 +29°C° 0.1 mm 3 mps 753 mmHg 74%
    19:00 +27°C° 0.1 mm 3 mps 753 mmHg 81%
    20:00 +26°C° 0 mm 3 mps 754 mmHg 83%
    21:00 +25°C° 0 mm 3 mps 754 mmHg 85%
    22:00 +24°C° 0 mm 3 mps 754 mmHg 87%
    23:00 +24°C° 0 mm 3 mps 754 mmHg 88%
    Show more